Port Lavaca, TX

10:37 AM CDT on September 22, 2017 (GMT -0500)
Port Lavaca

Weather History for KPKV - November, 2013

Change the Weather History Date:

Wednesday, November 20, 2013

  Actual Average (KVCT) Record (KVCT)
Temperature  
Mean Temperature 68 °F -  
Max Temperature 75 °F 69 °F 89 °F (1924)
Min Temperature 61 °F 49 °F 29 °F (1937)
Cooling Degree Days 3    
Growing Degree Days 18 (Base 50)    
Moisture  
Dew Point 64 °F    
Average Humidity 86    
Maximum Humidity 96    
Minimum Humidity 71    
Precipitation  
Precipitation 0.24 in - - ()
Sea Level Pressure  
Sea Level Pressure 29.94 in    
Wind  
Wind Speed 11 mph (East)    
Max Wind Speed 22 mph    
Max Gust Speed 28 mph    
Visibility 8 miles    
Events Rain    
Averages and records for this station are not official NWS values.
T = Trace of Precipitation, MM = Missing Value Source: NWS Daily Summary

Daily Weather History Graph

Daily Weather History Graph

Search for Another Location

Airport or City:

Trip Planner

Search our weather history database for the weather conditions in past years. The results will help you decide how hot, cold, wet, or windy it might be!

Date:

Astronomy

Nov. 20, 2013 Rise Set
Actual Time 6:53 AM CST 5:30 PM CST
Civil Twilight 6:28 AM CST 5:56 PM CST
Nautical Twilight 5:59 AM CST 6:24 PM CST
Astronomical Twilight 5:31 AM CST 6:53 PM CST
Moon 8:14 PM CST (11/20) 9:19 AM CST (11/20)
Length of Visible Light 11h 27m
Length of Day
10h 37m
Waning Gibbous, 91% of the Moon is Illuminated
Nov 20
Waning Gibbous
Nov 25
Last Quarter
Dec 2
New
Dec 9
First Quarter
Dec 17
Full

Hourly Weather History & Observations

Time (CST) Temp. Dew Point Humidity Pressure Visibility Wind Dir Wind Speed Gust Speed Precip Events Conditions
12:15 AM 62.1 °F 57.2 °F 84% 30.01 in 10.0 mi ENE 11.5 mph - N/A   Overcast
12:35 AM 62.1 °F 57.4 °F 85% 30.00 in 10.0 mi ENE 8.1 mph - N/A   Overcast
12:55 AM 61.9 °F 57.4 °F 85% 30.00 in 10.0 mi ENE 9.2 mph - N/A   Overcast
1:15 AM 62.4 °F 57.7 °F 85% 29.99 in 10.0 mi ENE 10.4 mph - N/A   Overcast
1:35 AM 62.4 °F 57.7 °F 85% 29.99 in 10.0 mi ENE 10.4 mph - N/A   Overcast
1:55 AM 62.6 °F 57.6 °F 84% 29.98 in 10.0 mi ENE 9.2 mph - N/A   Overcast
2:15 AM 62.1 °F 57.6 °F 85% 29.99 in 10.0 mi NE 3.5 mph - N/A   Mostly Cloudy
2:35 AM 62.6 °F 58.1 °F 85% 29.99 in 10.0 mi NNE 3.5 mph - N/A   Overcast
2:55 AM 61.9 °F 57.9 °F 87% 29.98 in 10.0 mi NNE 4.6 mph - N/A   Overcast
3:35 AM 62.2 °F 58.3 °F 87% 29.98 in 10.0 mi NE 5.8 mph - N/A   Mostly Cloudy
3:55 AM 61.9 °F 58.5 °F 89% 29.98 in 10.0 mi ENE 5.8 mph - N/A   Mostly Cloudy
4:55 AM 63.9 °F 59.0 °F 84% 29.98 in 10.0 mi ENE 8.1 mph - N/A   Overcast
5:15 AM 63.9 °F 59.0 °F 84% 29.98 in 10.0 mi NE 6.9 mph - N/A   Overcast
5:35 AM 63.3 °F 58.8 °F 85% 29.98 in 10.0 mi NNE 4.6 mph - N/A   Overcast
5:55 AM 62.6 °F 58.3 °F 86% 29.98 in 10.0 mi ENE 4.6 mph - N/A   Overcast
6:15 AM 63.9 °F 58.6 °F 83% 29.98 in 10.0 mi East 9.2 mph - N/A   Overcast
6:35 AM 63.7 °F 58.8 °F 84% 29.98 in 10.0 mi ENE 8.1 mph - N/A   Overcast
6:55 AM 63.5 °F 59.0 °F 85% 29.98 in 10.0 mi East 9.2 mph - N/A   Overcast
7:15 AM 63.9 °F 59.4 °F 85% 29.98 in 10.0 mi ENE 8.1 mph - N/A   Overcast
7:55 AM 66.7 °F 61.0 °F 82% 29.98 in 10.0 mi East 10.4 mph - N/A   Overcast
8:15 AM 68.0 °F 61.7 °F 80% 29.98 in 10.0 mi ENE 11.5 mph - N/A   Overcast
9:15 AM 72.3 °F 62.4 °F 71% 29.98 in 10.0 mi East 12.7 mph 20.7 mph N/A   Clear
9:35 AM 71.6 °F 62.4 °F 73% 29.99 in 10.0 mi East 15.0 mph - N/A   Mostly Cloudy
10:55 AM 73.8 °F 64.6 °F 73% 29.98 in 10.0 mi East 15.0 mph 23.0 mph N/A   Overcast
11:15 AM 73.8 °F 64.8 °F 73% 29.97 in 10.0 mi East 16.1 mph - N/A   Overcast
11:35 AM 74.7 °F 65.3 °F 73% 29.96 in 10.0 mi East 17.3 mph 24.2 mph N/A   Overcast
11:55 AM 75.6 °F 65.7 °F 71% 29.95 in 10.0 mi East 16.1 mph - N/A   Overcast
12:15 PM 73.9 °F 65.7 °F 75% 29.95 in 10.0 mi East 18.4 mph 26.5 mph N/A   Overcast
12:35 PM 73.9 °F 66.0 °F 76% 29.94 in 10.0 mi East 21.9 mph 26.5 mph N/A   Overcast
12:55 PM 72.5 °F 65.8 °F 80% 29.93 in 10.0 mi East 21.9 mph 27.6 mph N/A   Overcast
1:15 PM 70.7 °F 67.3 °F 89% 29.92 in 5.0 mi East 17.3 mph 20.7 mph N/A   Light Drizzle
1:35 PM 72.5 °F 68.2 °F 86% 29.91 in 5.0 mi East 18.4 mph 24.2 mph N/A   Haze
1:55 PM 73.0 °F 67.5 °F 83% 29.90 in 10.0 mi East 19.6 mph 24.2 mph N/A   Overcast
2:15 PM 75.4 °F 68.2 °F 78% 29.89 in 10.0 mi East 18.4 mph 26.5 mph N/A   Overcast
2:35 PM 74.3 °F 68.0 °F 81% 29.88 in 10.0 mi East 18.4 mph 25.3 mph N/A   Overcast
2:55 PM 74.1 °F 68.0 °F 81% 29.88 in 10.0 mi East 17.3 mph 26.5 mph N/A   Scattered Clouds
3:15 PM 73.6 °F 68.0 °F 83% 29.88 in 10.0 mi East 13.8 mph 23.0 mph N/A   Mostly Cloudy
3:35 PM 71.1 °F 68.7 °F 92% 29.88 in 2.0 mi East 18.4 mph - 0.21 in Rain Light Rain
3:55 PM 70.5 °F 68.2 °F 92% 29.88 in 5.0 mi SSE 5.8 mph - 0.23 in Rain Light Rain
4:15 PM 70.9 °F 68.9 °F 93% 29.88 in 5.0 mi ESE 11.5 mph - 0.01 in Rain Rain
4:35 PM 71.1 °F 68.9 °F 93% 29.88 in 5.0 mi ESE 13.8 mph - 0.01 in   Overcast
4:55 PM 70.7 °F 68.9 °F 94% 29.88 in 7.0 mi East 15.0 mph - 0.01 in   Overcast
5:15 PM 70.7 °F 68.7 °F 93% 29.89 in 5.0 mi ESE 12.7 mph - N/A   Overcast
5:35 PM 70.2 °F 68.4 °F 94% 29.89 in 5.0 mi ESE 11.5 mph - N/A   Overcast
5:55 PM 70.7 °F 68.9 °F 94% 29.90 in 7.0 mi East 10.4 mph - N/A   Overcast
6:15 PM 70.7 °F 68.9 °F 94% 29.90 in 7.0 mi East 10.4 mph - N/A   Overcast
6:35 PM 70.7 °F 68.9 °F 94% 29.90 in 7.0 mi ESE 10.4 mph - N/A   Overcast
6:55 PM 70.7 °F 68.9 °F 94% 29.91 in 7.0 mi ESE 10.4 mph - N/A   Mostly Cloudy
7:15 PM 70.7 °F 68.9 °F 94% 29.91 in 7.0 mi ESE 10.4 mph - N/A   Scattered Clouds
7:35 PM 70.2 °F 68.4 °F 94% 29.92 in 7.0 mi ESE 10.4 mph - N/A   Scattered Clouds
7:55 PM 69.8 °F 68.2 °F 95% 29.93 in 7.0 mi ESE 8.1 mph - N/A   Scattered Clouds
8:15 PM 69.8 °F 68.0 °F 94% 29.93 in 7.0 mi ESE 8.1 mph - N/A   Scattered Clouds
8:35 PM 69.8 °F 68.2 °F 95% 29.93 in 7.0 mi ESE 6.9 mph - N/A   Mostly Cloudy
10:15 PM 69.8 °F 68.5 °F 96% 29.94 in 4.0 mi SE 4.6 mph - N/A   Mostly Cloudy
10:35 PM 69.4 °F 68.2 °F 96% 29.94 in 4.0 mi SE 5.8 mph - N/A   Overcast
11:35 PM 72.3 °F 71.1 °F 96% 29.93 in 5.0 mi SE 9.2 mph - N/A   Overcast